Location: Alphen aan den Rijn
(52.1277°N, 4.6689°E)
Time: 17:56:46
(UTC+02:00)

Amateur Radio Satellites - All Passes

Search period start: 24 September 2017 17:26
Search period end: 25 September 2017 17:26
Location: Alphen aan den Rijn, 52.1277°N, 4.6689°E

Satellite Date Start Highest point End Downlink Frequencies (MHz)
Time Altitude Azimuth
CUTE-I 24 Sep 17:27:50 17:31:49 22° 55° (NE) 17:35:49 437.470
XW-2D 24 Sep 17:41:50 17:44:44 21° 62° (ENE) 17:47:38 145.860 - 145.880
SO-50 24 Sep 17:46:27 17:50:13 25° 336° (NNW) 17:54:01 436.795
MOZHAYETS 4 24 Sep 17:49:34 17:54:06 51° 291° (WNW) 17:58:35
XW-2F 24 Sep 17:53:18 17:56:26 24° 64° (ENE) 17:59:34 145.980 - 146.000
XW-2B 24 Sep 17:53:50 17:57:02 25° 64° (ENE) 18:00:15 145.730 - 145.750
AO-7 24 Sep 17:56:50 18:03:10 24° 271° (W) 18:09:33 .
KKS-1 24 Sep 18:04:30 18:08:08 24° 93° (E) 18:11:45 437.445
NUDT-PHONESAT 24 Sep 18:13:53 18:17:10 29° 66° (ENE) 18:20:28 437.300
XW-2C 24 Sep 18:14:43 18:18:20 40° 69° (ENE) 18:21:59 145.795 - 145.815
CUBESAT XI-V 24 Sep 18:17:39 18:22:20 80° 104° (ESE) 18:26:57 437.345
NO-84 24 Sep 18:19:42 18:23:00 55° 10° (N) 18:26:02 435.350 FM
PCSat 24 Sep 18:21:36 18:26:12 27° 331° (NNW) 18:30:49 145.827
ITUPSAT 1 24 Sep 18:26:09 18:30:21 31° 299° (WNW) 18:34:33 437.325
STARS 24 Sep 18:27:04 18:30:07 18° 90° (E) 18:33:10 437.465
LilacSat-2 24 Sep 18:27:43 18:31:32 58° 72° (ENE) 18:35:22 437.200
HO-68 24 Sep 18:28:53 18:35:17 37° 55° (NE) 18:41:43 435.675
SEEDS 24 Sep 18:38:14 18:40:30 14° 56° (NE) 18:42:47 437.485
KAITUO 1B 24 Sep 18:43:05 18:46:50 60° 72° (ENE) 18:50:36 145.475/437.950
DOVE 4 24 Sep 18:45:09 18:49:06 34° 264° (W) 18:52:58 437.250
AAUSAT CUBESAT 2 24 Sep 18:59:35 19:00:55 11° 54° (NE) 19:02:16 437.432
BEESAT 24 Sep 19:03:06 19:06:10 17° 306° (NW) 19:09:13 436.000
CUTE 1.7 + AOD 2 24 Sep 19:05:49 19:09:42 34° 66° (ENE) 19:13:34 437.475
CUTE-I 24 Sep 19:06:02 19:11:20 78° 255° (WSW) 19:16:42 437.470
XW-2D 24 Sep 19:14:55 19:18:39 47° 261° (W) 19:22:24 145.860 - 145.880
XW-2F 24 Sep 19:26:48 19:30:24 38° 263° (W) 19:34:01 145.980 - 146.000
XW-2B 24 Sep 19:27:31 19:31:05 36° 263° (W) 19:34:42 145.730 - 145.750
SO-50 24 Sep 19:29:06 19:32:06 17° 0° (N) 19:35:09 436.795
MOZHAYETS 4 24 Sep 19:29:46 19:30:14 10° 311° (NW) 19:30:41
KKS-1 24 Sep 19:40:38 19:44:56 48° 292° (WNW) 19:49:12 437.445
CUBEBUG 2 24 Sep 19:43:05 19:47:11 45° 68° (ENE) 19:51:27 437.445
NUDT-PHONESAT 24 Sep 19:47:41 19:51:01 29° 265° (W) 19:54:21 437.300
UWE-3 24 Sep 19:48:29 19:52:23 33° 65° (ENE) 19:56:26 435.000/436.395/437.385
XW-2A 24 Sep 19:48:50 19:51:59 36° 69° (ENE) 19:55:11 145.665 - 145.685
XW-2C 24 Sep 19:49:36 19:52:40 22° 267° (W) 19:55:46 145.795 - 145.815
CUBESAT XI-V 24 Sep 19:56:02 19:59:09 18° 304° (NW) 20:02:15 437.345
NO-84 24 Sep 19:57:17 20:00:21 47° 211° (SSW) 20:03:13 435.350 FM
STARS 24 Sep 20:02:31 20:06:53 64° 289° (WNW) 20:11:15 437.465
LilacSat-2 24 Sep 20:03:40 20:06:10 16° 271° (W) 20:08:39 437.200
STRAND 1 24 Sep 20:07:06 20:10:46 19° 89° (E) 20:14:26 437.568
PCSat 24 Sep 20:07:58 20:11:26 17° 357° (N) 20:14:54 145.827
SEEDS 24 Sep 20:11:19 20:15:35 90° 95° (E) 20:19:51 437.485
HO-68 24 Sep 20:15:39 20:22:43 63° 257° (WSW) 20:29:51 435.675
KAITUO 1B 24 Sep 20:18:56 20:21:12 15° 271° (W) 20:23:28 145.475/437.950
Oscar 11 24 Sep 20:28:58 20:32:49 31° 65° (ENE) 20:36:41 .
AO-73 24 Sep 20:30:30 20:34:39 42° 67° (ENE) 20:38:54 145.935
AAUSAT CUBESAT 2 24 Sep 20:31:29 20:35:38 71° 72° (ENE) 20:39:48 437.432
ZACube-1 24 Sep 20:33:47 20:38:00 50° 70° (ENE) 20:42:23 437.345
BEESAT 3 24 Sep 20:34:44 20:38:21 32° 121° (ESE) 20:41:58 437.485
CUTE 1.7 + AOD 2 24 Sep 20:41:41 20:45:32 32° 265° (W) 20:49:25 437.475
BEESAT 2 24 Sep 20:45:31 20:47:57 16° 113° (ESE) 20:50:26 435.950
CUTE-I 24 Sep 20:49:36 20:52:18 14° 275° (W) 20:54:59 437.470
SO-50 24 Sep 21:10:10 21:14:00 26° 25° (NNE) 21:17:52 436.795
Max Valier Satellite 24 Sep 21:11:35 21:13:52 16° 59° (ENE) 21:16:09 145.860
nSIGHT-1 24 Sep 21:14:36 21:15:38 11° 138° (SE) 21:16:40 .
CUBEBUG 2 24 Sep 21:20:30 21:24:02 25° 268° (W) 21:27:42 437.445
Tancredo 1 24 Sep 21:21:32 21:24:00 33° 156° (SSE) 21:26:29 437.200
XW-2A 24 Sep 21:22:15 21:24:50 20° 267° (W) 21:27:27 145.665 - 145.685
UWE-3 24 Sep 21:24:50 21:28:50 35° 265° (W) 21:32:58 435.000/436.395/437.385
AO-85 24 Sep 21:30:53 21:34:29 37° 122° (ESE) 21:38:11 145.980
STARS 24 Sep 21:40:54 21:42:24 12° 309° (NW) 21:43:54 437.465
STRAND 1 24 Sep 21:45:22 21:50:32 75° 288° (WNW) 21:55:40 437.568
SEEDS 24 Sep 21:50:12 21:51:55 12° 274° (W) 21:53:37 437.485
DELFI C3 24 Sep 21:51:53 21:55:41 48° 70° (ENE) 21:59:30 145.870
PCSat 24 Sep 21:52:31 21:56:48 23° 23° (NNE) 22:01:04 145.827
Oscar 11 24 Sep 22:04:52 22:08:54 36° 264° (W) 22:12:58 .
AO-73 24 Sep 22:07:18 22:11:02 27° 267° (W) 22:14:52 145.935
HO-68 24 Sep 22:08:27 22:11:58 14° 279° (W) 22:15:29 435.675
EO-88 24 Sep 22:08:42 22:12:10 41° 69° (ENE) 22:15:40 145.990 - 145.960
AAUSAT CUBESAT 2 24 Sep 22:09:08 22:11:34 15° 272° (W) 22:14:01 437.432
ZACube-1 24 Sep 22:11:03 22:14:34 23° 269° (W) 22:18:10 437.345
ISS 24 Sep 22:11:09 22:13:54 25° 148° (SSE) 22:16:39 437.550
BEESAT 3 24 Sep 22:11:56 22:15:49 44° 321° (NW) 22:19:43 437.485
BEESAT 2 24 Sep 22:21:06 22:25:09 83° 313° (NW) 22:29:15 435.950
TIGRISAT 24 Sep 22:26:16 22:28:56 15° 87° (E) 22:31:36 435.000
Max Valier Satellite 24 Sep 22:43:34 22:47:15 64° 258° (WSW) 22:51:00 145.860
FO-29 24 Sep 22:44:02 22:49:21 55° 101° (E) 22:55:11 435.910
PRISM 24 Sep 22:45:03 22:45:33 10° 86° (E) 22:46:05 437.425
YUBILEINY 24 Sep 22:45:13 22:52:49 32° 59° (ENE) 23:00:24 435.215
ESTCUBE 1 24 Sep 22:46:21 22:49:32 19° 57° (ENE) 22:52:43 437.505/2401.250
nSIGHT-1 24 Sep 22:48:14 22:51:18 41° 157° (SSE) 22:54:24 .
SO-50 24 Sep 22:50:29 22:55:04 85° 48° (NE) 22:59:42 436.795
Tancredo 1 24 Sep 22:55:37 22:58:19 80° 175° (S) 23:01:00 437.200
LO-87 24 Sep 23:02:23 23:05:20 25° 65° (ENE) 23:08:19 145.935 - 145.965
AO-85 24 Sep 23:11:13 23:14:53 37° 324° (NW) 23:18:42 145.980
STRAND 1 24 Sep 23:25:53 23:28:56 16° 309° (NW) 23:31:58 437.568
DELFI C3 24 Sep 23:27:48 23:30:42 19° 269° (W) 23:33:36 145.870
PCSat 24 Sep 23:35:50 23:41:15 62° 47° (NE) 23:46:38 145.827
UNISAT 6 24 Sep 23:38:08 23:42:47 65° 101° (ESE) 23:47:27 437.425
EO-88 24 Sep 23:43:15 23:46:01 20° 268° (W) 23:48:48 145.990 - 145.960
ISS 24 Sep 23:46:47 23:50:02 70° 168° (SSE) 23:53:20 437.550
BEESAT 3 24 Sep 23:51:37 23:54:18 17° 343° (NNW) 23:57:00 437.485
BEESAT 2 25 Sep 00:00:13 00:03:28 22° 334° (NNW) 00:06:45 435.950
TIGRISAT 25 Sep 00:01:33 00:06:15 86° 284° (WNW) 00:10:57 435.000
AIST 2D 25 Sep 00:11:17 00:13:48 18° 91° (E) 00:16:18 435.315
POLYITAN 1 25 Sep 00:17:00 00:17:48 10° 85° (E) 00:18:35 437.675
PRISM 25 Sep 00:17:26 00:21:31 82° 105° (ESE) 00:25:35 437.425
DX 1 25 Sep 00:18:50 00:19:56 11° 51° (NE) 00:21:03 434.975-435.025
EO-79 25 Sep 00:20:26 00:21:51 11° 86° (E) 00:23:15 145.935-145.965
ESTCUBE 1 25 Sep 00:21:20 00:25:52 72° 257° (WSW) 00:30:25 437.505/2401.250
nSIGHT-1 25 Sep 00:24:14 00:27:30 83° 177° (S) 00:30:45 .
FO-29 25 Sep 00:29:42 00:34:18 30° 299° (WNW) 00:39:15 435.910
Tancredo 1 25 Sep 00:30:04 00:32:43 58° 194° (SSW) 00:35:22 437.200
SO-50 25 Sep 00:31:51 00:35:00 18° 246° (WSW) 00:38:09 436.795
QB50P2 25 Sep 00:33:19 00:36:07 17° 89° (E) 00:38:53 145.880/145.840
LO-87 25 Sep 00:35:32 00:38:41 30° 264° (W) 00:41:52 145.935 - 145.965
SPROUT 25 Sep 00:36:59 00:41:04 48° 69° (ENE) 00:45:11 437.525
YUBILEINY 25 Sep 00:41:54 00:50:38 79° 263° (W) 00:59:23 435.215
VELOX 1 25 Sep 00:45:49 00:50:02 47° 68° (ENE) 00:54:16 145.980
AO-85 25 Sep 00:53:49 00:56:22 16° 348° (NNW) 00:59:00 145.980
NANOSAT C BR1 25 Sep 01:07:02 01:10:44 28° 94° (E) 01:14:25 145.865
UNISAT 6 25 Sep 01:15:34 01:19:06 22° 301° (WNW) 01:22:39 437.425
PCSat 25 Sep 01:19:41 01:24:21 30° 248° (WSW) 01:28:59 145.827
ISS 25 Sep 01:23:11 01:26:29 79° 190° (S) 01:29:47 437.550
BEESAT 3 25 Sep 01:31:08 01:33:22 14° 7° (N) 01:35:35 437.485
DUCHIFAT 1 25 Sep 01:34:38 01:38:44 44° 99° (E) 01:42:49 145.980
TIGRISAT 25 Sep 01:39:29 01:42:17 16° 305° (NW) 01:45:04 435.000
BEESAT 2 25 Sep 01:40:24 01:42:35 14° 358° (N) 01:44:45 435.950
UKube-1 25 Sep 01:42:08 01:46:03 35° 65° (ENE) 01:49:59 .
AIST 2D 25 Sep 01:43:50 01:47:12 41° 290° (WNW) 01:50:31 435.315
50 SAT 25 Sep 01:46:05 01:49:21 63° 73° (ENE) 01:52:39 437.505
M-CUBED/EXP-1 PRIME 25 Sep 01:49:41 01:51:19 13° 96° (E) 01:52:55 437.505
POLYITAN 1 25 Sep 01:50:00 01:54:20 77° 103° (ESE) 01:58:38 437.675
DX 1 25 Sep 01:51:00 01:55:17 61° 70° (ENE) 01:59:35 434.975-435.025
PRISM 25 Sep 01:53:58 01:56:15 15° 304° (NW) 01:58:32 437.425
EO-79 25 Sep 01:53:59 01:58:18 84° 106° (ESE) 02:02:35 145.935-145.965
nSIGHT-1 25 Sep 02:00:33 02:03:46 59° 196° (SSW) 02:06:59 .
ESTCUBE 1 25 Sep 02:02:40 02:03:30 10° 276° (W) 02:04:21 437.505/2401.250
Tancredo 1 25 Sep 02:04:58 02:06:49 17° 213° (SSW) 02:08:38 437.200
BUGSAT 1 25 Sep 02:05:40 02:09:20 28° 95° (E) 02:13:00 437.445
QB50P2 25 Sep 02:08:05 02:12:21 67° 288° (WNW) 02:16:37 145.880/145.840
SPROUT 25 Sep 02:13:53 02:17:13 22° 268° (W) 02:20:35 437.525
VELOX 1 25 Sep 02:23:08 02:26:43 24° 267° (W) 02:30:18 145.980
ITUPSAT 1 25 Sep 02:24:23 02:27:37 18° 55° (NE) 02:30:51 437.325
Gurwin Techsat 1B 25 Sep 02:27:46 02:31:33 19° 89° (E) 02:35:19 435.225
Oscar 19 25 Sep 02:33:19 02:37:46 28° 93° (E) 02:42:11 437.125/150
AO-85 25 Sep 02:35:36 02:38:18 17° 13° (NNE) 02:41:07 145.980
YUBILEINY 25 Sep 02:40:04 02:46:03 21° 286° (WNW) 02:52:04 435.215
O/OREOS (USA 219) 25 Sep 02:40:49 02:44:19 22° 103° (ESE) 02:47:52 437.305
NANOSAT C BR1 25 Sep 02:42:34 02:46:33 39° 293° (WNW) 02:50:31 145.865
BEESAT 25 Sep 02:58:58 03:03:11 32° 62° (ENE) 03:07:26 436.000
ISS 25 Sep 02:59:44 03:02:45 33° 207° (SSW) 03:05:45 437.550
BEESAT 3 25 Sep 03:08:40 03:12:09 27° 30° (NNE) 03:15:36 437.485
DUCHIFAT 1 25 Sep 03:10:42 03:14:12 25° 298° (WNW) 03:17:42 145.980
UKube-1 25 Sep 03:18:16 03:22:06 31° 264° (W) 03:25:58 .
BEESAT 2 25 Sep 03:18:43 03:21:45 20° 22° (NNE) 03:24:47 435.950
MOZHAYETS 4 25 Sep 03:19:44 03:24:06 43° 67° (ENE) 03:28:32
50 SAT 25 Sep 03:21:09 03:22:14 11° 271° (W) 03:23:20 437.505
M-CUBED/EXP-1 PRIME 25 Sep 03:22:51 03:26:10 54° 295° (WNW) 03:29:21 437.505
POLYITAN 1 25 Sep 03:26:51 03:29:36 17° 303° (WNW) 03:32:20 437.675
DX 1 25 Sep 03:28:48 03:31:51 19° 269° (W) 03:34:55 434.975-435.025
EO-79 25 Sep 03:30:57 03:33:29 16° 304° (NW) 03:36:02 145.935-145.965
nSIGHT-1 25 Sep 03:37:16 03:39:40 19° 215° (SW) 03:42:03 .
BUGSAT 1 25 Sep 03:40:52 03:44:46 37° 294° (WNW) 03:48:40 437.445
QB50P2 25 Sep 03:45:56 03:47:21 11° 308° (NW) 03:48:45 145.880/145.840
CUBESAT XI-V 25 Sep 03:50:04 03:53:48 24° 60° (ENE) 03:57:32 437.345
AO-7 25 Sep 03:56:47 04:03:01 23° 88° (E) 04:09:13 .
ITUPSAT 1 25 Sep 04:00:03 04:04:52 84° 256° (WSW) 04:09:42 437.325
Gurwin Techsat 1B 25 Sep 04:06:47 04:12:08 78° 288° (WNW) 04:17:26 435.225
Oscar 19 25 Sep 04:12:20 04:17:22 51° 293° (WNW) 04:22:20 437.125/150
AO-85 25 Sep 04:15:46 04:19:45 38° 36° (NE) 04:24:02 145.980
O/OREOS (USA 219) 25 Sep 04:18:55 04:23:23 57° 304° (WNW) 04:27:54 437.305
BEESAT 25 Sep 04:36:21 04:40:52 41° 262° (W) 04:45:25 436.000
BEESAT 3 25 Sep 04:46:03 04:50:04 66° 231° (SW) 04:53:58 437.485
BEESAT 2 25 Sep 04:56:10 05:00:14 64° 44° (NE) 05:04:15 435.950
MOZHAYETS 4 25 Sep 04:57:24 05:01:25 29° 266° (W) 05:05:28
KKS-1 25 Sep 05:07:32 05:11:44 44° 67° (ENE) 05:15:57 437.445
RS-15 25 Sep 05:12:31 05:22:43 33° 104° (ESE) 05:32:52 29.354- 29.394
ITAMSAT 1 25 Sep 05:19:37 05:24:47 58° 101° (ESE) 05:29:55 435.822/435.867
CUBESAT XI-V 25 Sep 05:26:12 05:30:51 58° 259° (W) 05:35:30 437.345
STARS 25 Sep 05:28:33 05:32:26 32° 64° (ENE) 05:36:20 437.465
ITUPSAT 1 25 Sep 05:41:07 05:43:27 13° 274° (W) 05:45:47 437.325
Gurwin Techsat 1B 25 Sep 05:47:57 05:51:18 17° 309° (NW) 05:54:38 435.225
AO-7 25 Sep 05:48:41 05:57:03 83° 110° (ESE) 06:05:22 .
Oscar 19 25 Sep 05:53:52 05:55:34 12° 314° (NW) 05:57:18 437.125/150
STRAND 1 25 Sep 05:53:53 05:54:56 11° 45° (NE) 05:56:00 437.568
AO-85 25 Sep 05:56:06 06:00:17 45° 235° (SW) 06:04:44 145.980
O/OREOS (USA 219) 25 Sep 06:01:22 06:03:50 14° 326° (NW) 06:06:18 437.305
BEESAT 2 25 Sep 06:34:32 06:37:37 21° 244° (WSW) 06:40:41 435.950
DOVE 4 25 Sep 06:37:05 06:41:01 37° 97° (E) 06:45:05 437.250
XW-2D 25 Sep 06:42:58 06:44:49 13° 88° (E) 06:46:40 145.860 - 145.880
KKS-1 25 Sep 06:44:44 06:48:28 26° 266° (W) 06:52:12 437.445
XW-2F 25 Sep 06:53:51 06:56:12 15° 89° (E) 06:58:31 145.980 - 146.000
XW-2B 25 Sep 06:54:51 06:57:21 17° 90° (E) 06:59:51 145.730 - 145.750
ITAMSAT 1 25 Sep 06:59:36 07:03:58 28° 301° (WNW) 07:08:19 435.822/435.867
STARS 25 Sep 07:04:44 07:08:45 35° 263° (W) 07:12:47 437.465
NUDT-PHONESAT 25 Sep 07:12:19 07:15:00 18° 91° (E) 07:17:40 437.300
XW-2C 25 Sep 07:15:44 07:19:02 27° 94° (E) 07:22:17 145.795 - 145.815
CUTE-I 25 Sep 07:17:31 07:22:03 27° 93° (E) 07:26:34 437.470
RS-15 25 Sep 07:21:23 07:33:46 86° 130° (SE) 07:46:04 29.354- 29.394
STRAND 1 25 Sep 07:28:06 07:32:57 47° 66° (ENE) 07:37:52 437.568
LilacSat-2 25 Sep 07:29:29 07:33:08 39° 97° (E) 07:36:44 437.200
HO-68 25 Sep 07:37:43 07:42:54 21° 87° (E) 07:48:04 435.675
AO-7 25 Sep 07:42:01 07:49:08 33° 313° (NW) 07:56:13 .
KAITUO 1B 25 Sep 07:42:30 07:46:02 38° 97° (E) 07:49:32 145.475/437.950
SEEDS 25 Sep 07:51:50 07:52:44 11° 84° (E) 07:53:38 437.485
DOVE 4 25 Sep 08:15:01 08:18:40 29° 295° (WNW) 08:22:25 437.250
XW-2D 25 Sep 08:15:39 08:19:29 70° 287° (WNW) 08:23:15 145.860 - 145.880
CUTE 1.7 + AOD 2 25 Sep 08:20:24 08:24:11 30° 94° (E) 08:27:55 437.475
XW-2F 25 Sep 08:26:56 08:30:42 57° 288° (WNW) 08:34:23 145.980 - 146.000
XW-2B 25 Sep 08:28:07 08:31:52 54° 289° (WNW) 08:35:35 145.730 - 145.750
XW-2A 25 Sep 08:37:52 08:40:18 18° 92° (E) 08:42:42 145.665 - 145.685
NUDT-PHONESAT 25 Sep 08:45:31 08:49:07 46° 290° (WNW) 08:52:41 437.300
XW-2C 25 Sep 08:49:48 08:53:15 32° 293° (WNW) 08:56:40 145.795 - 145.815
CUTE-I 25 Sep 08:57:12 09:02:25 56° 293° (WNW) 09:07:37 437.470
FO-29 25 Sep 09:02:48 09:07:56 44° 66° (ENE) 09:12:51 435.910
CUBEBUG 2 25 Sep 09:04:00 09:08:35 49° 99° (E) 09:13:12 437.445
LilacSat-2 25 Sep 09:04:07 09:07:14 24° 297° (WNW) 09:10:20 437.200
UNISAT 6 25 Sep 09:07:31 09:10:27 18° 56° (ENE) 09:13:26 437.425
STRAND 1 25 Sep 09:07:52 09:12:21 30° 266° (W) 09:16:52 437.568
UWE-3 25 Sep 09:08:01 09:12:17 34° 95° (E) 09:16:33 435.000/436.395/437.385
KAITUO 1B 25 Sep 09:16:50 09:19:52 23° 296° (WNW) 09:22:51 145.475/437.950
HO-68 25 Sep 09:24:27 09:31:42 85° 108° (ESE) 09:38:55 435.675
SEEDS 25 Sep 09:24:55 09:29:08 82° 101° (ESE) 09:33:19 437.485
TIGRISAT 25 Sep 09:30:00 09:33:32 24° 61° (ENE) 09:37:10 435.000
RS-15 25 Sep 09:35:37 09:47:38 52° 339° (NNW) 09:59:24 29.354- 29.394
AO-7 25 Sep 09:35:40 09:39:28 14° 338° (NNW) 09:43:17 .
PRISM 25 Sep 09:38:09 09:40:54 18° 58° (ENE) 09:43:39 437.425
AAUSAT CUBESAT 2 25 Sep 09:43:07 09:47:12 60° 101° (E) 09:51:16 437.432
Oscar 11 25 Sep 09:46:06 09:49:55 28° 94° (E) 09:53:40 .
AO-73 25 Sep 09:48:29 09:52:51 42° 97° (E) 09:57:11 145.935
ZACube-1 25 Sep 09:52:12 09:56:42 50° 99° (E) 10:01:09 437.345
CUTE 1.7 + AOD 2 25 Sep 09:56:10 10:00:04 35° 294° (WNW) 10:03:54 437.475
XW-2A 25 Sep 10:09:56 10:13:12 40° 291° (WNW) 10:16:26 145.665 - 145.685
CUTE-I 25 Sep 10:39:06 10:41:25 13° 313° (NW) 10:43:43 437.470
CUBEBUG 2 25 Sep 10:41:02 10:44:59 27° 298° (WNW) 10:48:58 437.445
UNISAT 6 25 Sep 10:42:14 10:46:37 77° 256° (WSW) 10:51:09 437.425
UWE-3 25 Sep 10:44:28 10:48:45 37° 294° (WNW) 10:53:03 435.000/436.395/437.385
FO-29 25 Sep 10:48:20 10:53:15 33° 265° (W) 10:57:57 435.910
AIST 2D 25 Sep 10:51:01 10:53:27 18° 62° (ENE) 10:55:53 435.315
DELFI C3 25 Sep 10:57:39 11:01:17 35° 97° (E) 11:04:53 145.870
DUCHIFAT 1 25 Sep 10:59:22 11:00:38 11° 52° (NE) 11:01:54 145.980
SEEDS 25 Sep 11:01:50 11:04:16 15° 303° (WNW) 11:06:42 437.485
O/OREOS (USA 219) 25 Sep 11:05:02 11:08:43 23° 43° (NE) 11:12:23 437.305
EO-88 25 Sep 11:05:23 11:08:27 25° 94° (E) 11:11:30 145.990 - 145.960
TIGRISAT 25 Sep 11:05:41 11:09:57 51° 261° (W) 11:14:21 435.000
PRISM 25 Sep 11:11:42 11:15:46 66° 258° (WSW) 11:19:50 437.425
HO-68 25 Sep 11:12:51 11:18:45 29° 310° (NW) 11:24:39 435.675
POLYITAN 1 25 Sep 11:13:41 11:16:31 18° 58° (ENE) 11:19:22 437.675
EO-79 25 Sep 11:17:21 11:20:19 19° 59° (ENE) 11:23:18 145.935-145.965
AAUSAT CUBESAT 2 25 Sep 11:19:23 11:22:16 19° 300° (WNW) 11:25:09 437.432
Oscar 11 25 Sep 11:22:05 11:26:09 39° 293° (WNW) 11:30:10 .
AO-73 25 Sep 11:24:58 11:28:57 30° 297° (WNW) 11:32:54 145.935
AO-7 25 Sep 11:27:01 11:28:46 11° 6° (N) 11:30:33 .
ZACube-1 25 Sep 11:28:55 11:32:43 26° 298° (WNW) 11:36:31 437.345
QB50P2 25 Sep 11:30:52 11:34:22 26° 62° (ENE) 11:37:54 145.880/145.840
Max Valier Satellite 25 Sep 11:41:26 11:45:13 80° 103° (ESE) 11:48:58 145.860
RS-15 25 Sep 11:51:21 12:03:10 48° 12° (NNE) 12:14:29 29.354- 29.394
YUBILEINY 25 Sep 11:55:18 12:02:07 27° 78° (ENE) 12:08:57 435.215
LO-87 25 Sep 11:57:09 11:59:16 15° 90° (E) 12:01:23 145.935 - 145.965
NANOSAT C BR1 25 Sep 12:04:04 12:08:01 41° 67° (ENE) 12:12:01 145.865
ESTCUBE 1 25 Sep 12:08:59 12:11:52 17° 88° (E) 12:14:45 437.505/2401.250
Gurwin Techsat 1B 25 Sep 12:18:23 12:20:18 12° 46° (NE) 12:22:14 435.225
Oscar 19 25 Sep 12:19:08 12:22:07 16° 50° (NE) 12:25:06 437.125/150
AIST 2D 25 Sep 12:22:53 12:26:20 48° 261° (W) 12:29:49 435.315
UNISAT 6 25 Sep 12:23:00 12:24:10 11° 276° (W) 12:25:20 437.425
DUCHIFAT 1 25 Sep 12:31:21 12:35:30 67° 72° (ENE) 12:39:43 145.980
DELFI C3 25 Sep 12:32:38 12:35:56 26° 295° (WNW) 12:39:13 145.870
M-CUBED/EXP-1 PRIME 25 Sep 12:38:47 12:42:50 55° 64° (ENE) 12:46:34 437.505
EO-88 25 Sep 12:38:51 12:42:11 33° 293° (WNW) 12:45:28 145.990 - 145.960
O/OREOS (USA 219) 25 Sep 12:44:01 12:48:38 72° 245° (WSW) 12:53:13 437.305
POLYITAN 1 25 Sep 12:47:37 12:51:50 70° 257° (WSW) 12:56:07 437.675
EO-79 25 Sep 12:51:29 12:55:40 64° 258° (WSW) 12:59:53 145.935-145.965
NO-84 25 Sep 12:56:20 12:57:02 10° 131° (SE) 12:57:43 435.350 FM
BUGSAT 1 25 Sep 13:00:26 13:04:12 40° 67° (ENE) 13:08:04 437.445
QB50P2 25 Sep 13:05:57 13:09:59 43° 262° (W) 13:14:04 145.880/145.840
AO-7 25 Sep 13:12:54 13:18:24 20° 34° (NNE) 13:23:54 .
Max Valier Satellite 25 Sep 13:16:42 13:18:30 13° 302° (WNW) 13:20:19 145.860
LO-87 25 Sep 13:29:28 13:33:01 55° 288° (WNW) 13:36:34 145.935 - 145.965
NANOSAT C BR1 25 Sep 13:40:23 13:43:53 25° 267° (W) 13:47:26 145.865
ESTCUBE 1 25 Sep 13:44:42 13:49:12 72° 287° (WNW) 13:53:40 437.505/2401.250
YUBILEINY 25 Sep 13:49:12 13:57:56 85° 281° (W) 14:06:42 435.215
SPROUT 25 Sep 13:52:26 13:56:33 42° 98° (E) 14:00:38 437.525
Gurwin Techsat 1B 25 Sep 13:54:00 13:59:07 51° 67° (ENE) 14:04:17 435.225
Oscar 19 25 Sep 13:55:25 14:00:36 71° 71° (ENE) 14:05:48 437.125/150
RS-15 25 Sep 14:05:19 14:17:36 79° 43° (NE) 14:29:11 29.354- 29.394
VELOX 1 25 Sep 14:06:11 14:10:22 42° 99° (E) 14:14:32 145.980
DUCHIFAT 1 25 Sep 14:09:00 14:11:38 16° 271° (W) 14:14:18 145.980
M-CUBED/EXP-1 PRIME 25 Sep 14:14:31 14:17:29 19° 261° (W) 14:20:19 437.505
PCSat 25 Sep 14:25:29 14:28:36 16° 105° (ESE) 14:31:44 145.827
O/OREOS (USA 219) 25 Sep 14:26:03 14:27:10 11° 264° (W) 14:28:17 437.305
NO-84 25 Sep 14:30:12 14:33:49 45° 148° (SSE) 14:37:09 435.350 FM
50 SAT 25 Sep 14:33:18 14:36:08 25° 96° (E) 14:38:58 437.505
BUGSAT 1 25 Sep 14:36:23 14:39:44 25° 267° (W) 14:43:07 437.445
SO-50 25 Sep 14:50:02 14:54:09 36° 122° (ESE) 14:58:18 436.795
UKube-1 25 Sep 14:59:04 15:02:49 28° 95° (E) 15:06:32 .
AO-7 25 Sep 15:01:30 15:09:30 54° 58° (ENE) 15:17:29 .
ITAMSAT 1 25 Sep 15:05:00 15:09:23 29° 59° (ENE) 15:13:47 435.822/435.867
DX 1 25 Sep 15:09:24 15:13:39 50° 101° (E) 15:17:52 434.975-435.025
ESTCUBE 1 25 Sep 15:23:12 15:25:14 13° 308° (NW) 15:27:16 437.505/2401.250
SPROUT 25 Sep 15:28:40 15:32:17 27° 297° (WNW) 15:35:53 437.525
Gurwin Techsat 1B 25 Sep 15:34:43 15:39:20 30° 266° (W) 15:43:59 435.225
Oscar 19 25 Sep 15:36:36 15:40:27 21° 270° (W) 15:44:20 437.125/150
VELOX 1 25 Sep 15:42:56 15:46:40 28° 298° (WNW) 15:50:24 145.980
YUBILEINY 25 Sep 15:49:15 15:56:12 26° 306° (NW) 16:03:12 435.215
ITUPSAT 1 25 Sep 15:55:44 15:58:52 17° 88° (E) 16:01:57 437.325
PCSat 25 Sep 16:05:43 16:11:08 78° 125° (SE) 16:16:36 145.827
50 SAT 25 Sep 16:05:47 16:08:36 26° 294° (WNW) 16:11:24 437.505
NO-84 25 Sep 16:07:38 16:11:12 61° 346° (NNW) 16:14:28 435.350 FM
DOVE 4 25 Sep 16:13:53 16:15:14 11° 54° (NE) 16:16:34 437.250
RS-15 25 Sep 16:18:25 16:29:13 42° 250° (WSW) 16:39:33 29.354- 29.394
SO-50 25 Sep 16:30:12 16:34:33 46° 322° (NW) 16:38:57 436.795
BEESAT 25 Sep 16:30:23 16:34:44 33° 96° (E) 16:39:02 436.000
HO-68 25 Sep 16:31:35 16:32:59 11° 28° (NNE) 16:34:24 435.675
UKube-1 25 Sep 16:34:55 16:38:57 39° 294° (WNW) 16:42:57 .
ITAMSAT 1 25 Sep 16:43:32 16:48:36 54° 259° (WSW) 16:53:43 435.822/435.867
MOZHAYETS 4 25 Sep 16:45:43 16:50:13 45° 99° (E) 16:54:39
DX 1 25 Sep 16:46:06 16:49:34 24° 300° (WNW) 16:53:01 434.975-435.025
AO-7 25 Sep 16:54:25 17:02:24 48° 260° (W) 17:10:25 .
CUTE-I 25 Sep 17:07:39 17:10:50 16° 51° (NE) 17:14:03 437.470
CUBESAT XI-V 25 Sep 17:17:18 17:21:04 24° 92° (E) 17:24:48 437.345
